Johnstown, PA

8:53 PM EDT on May 26, 2017 (GMT -0400)
Johnstown-Cambria County

Weather History for KJST - April, 2012

Change the Weather History Date:

Saturday, April 21, 2012

  Actual Average Record
Temperature  
Mean Temperature 48 °F 49 °F  
Max Temperature 57 °F 59 °F 90 °F (1954)
Min Temperature 39 °F 40 °F 24 °F (1897)
Degree Days  
Heating Degree Days 17 16  
Month to date heating degree days 411  
Since 1 July heating degree days 6203  
Cooling Degree Days 0 0  
Month to date cooling degree days 0  
Year to date cooling degree days 0  
Moisture  
Dew Point 45 °F    
Average Humidity 89    
Maximum Humidity 100    
Minimum Humidity 69    
Precipitation  
Precipitation 0.26 in 0.10 in 1.46 in (1964)
Month to date precipitation 2.60  
Year to date precipitation 11.12  
Sea Level Pressure  
Sea Level Pressure 29.79 in    
Wind  
Wind Speed 8 mph (WNW)    
Max Wind Speed 17 mph    
Max Gust Speed 22 mph    
Visibility 6 miles    
Events Fog , Rain    
T = Trace of Precipitation, MM = Missing Value Source: NWS Daily Summary

Daily Weather History Graph

Daily Weather History Graph

Search for Another Location

Airport or City:

Trip Planner

Search our weather history database for the weather conditions in past years. The results will help you decide how hot, cold, wet, or windy it might be!

Date:

Astronomy

Apr. 21, 2012 Rise Set
Actual Time 6:27 AM EDT 8:00 PM EDT
Civil Twilight 5:58 AM EDT 8:29 PM EDT
Nautical Twilight 5:24 AM EDT 9:04 PM EDT
Astronomical Twilight 4:47 AM EDT 9:41 PM EDT
Moon 6:22 AM EDT (4/21) 8:40 PM EDT (4/21)
Length of Visible Light 14h 30m
Length of Day
13h 33m
New Moon, 0% of the Moon is Illuminated
Apr 21
New Moon
Apr 29
First Quarter
May 5
Full
May 12
Last Quarter
May 20
New

Hourly Weather History & Observations

Time (EDT) Temp. Windchill Dew Point Humidity Pressure Visibility Wind Dir Wind Speed Gust Speed Precip Events Conditions
12:54 AM 55.0 °F - 48.0 °F 77% 29.75 in 10.0 mi South 5.8 mph - N/A   Clear
1:54 AM 55.0 °F - 48.0 °F 77% 29.74 in 10.0 mi South 6.9 mph - N/A   Mostly Cloudy
2:54 AM 55.0 °F - 48.0 °F 77% 29.73 in 10.0 mi South 5.8 mph - N/A   Overcast
3:54 AM 54.0 °F - 48.0 °F 80% 29.72 in 10.0 mi SSW 3.5 mph - N/A   Partly Cloudy
4:54 AM 54.0 °F - 46.9 °F 77% 29.71 in 10.0 mi South 3.5 mph - N/A   Partly Cloudy
5:54 AM 55.9 °F - 46.9 °F 72% 29.70 in 10.0 mi SSW 4.6 mph - N/A   Mostly Cloudy
6:54 AM 57.0 °F - 46.9 °F 69% 29.71 in 10.0 mi SW 6.9 mph - N/A   Scattered Clouds
7:54 AM 57.0 °F - 46.9 °F 69% 29.72 in 10.0 mi SW 8.1 mph - N/A   Scattered Clouds
8:54 AM 57.0 °F - 48.0 °F 72% 29.74 in 10.0 mi WNW 8.1 mph - N/A   Overcast
9:54 AM 54.0 °F - 48.0 °F 80% 29.76 in 10.0 mi WNW 12.7 mph - N/A   Mostly Cloudy
10:25 AM 51.8 °F - 48.2 °F 88% 29.78 in 10.0 mi WNW 12.7 mph - 0.00 in   Overcast
10:54 AM 52.0 °F - 48.0 °F 86% 29.78 in 10.0 mi WNW 9.2 mph - 0.00 in   Overcast
11:22 AM 51.8 °F - 48.2 °F 88% 29.78 in 10.0 mi WNW 5.8 mph - N/A   Overcast
11:51 AM 51.8 °F - 46.4 °F 82% 29.78 in 10.0 mi Calm Calm - N/A   Overcast
11:54 AM 52.0 °F - 46.9 °F 83% 29.78 in 10.0 mi Calm Calm - N/A   Overcast
12:54 PM 53.1 °F - 48.0 °F 83% 29.79 in 10.0 mi WNW 5.8 mph - 0.00 in Rain Light Rain
1:54 PM 54.0 °F - 46.9 °F 77% 29.77 in 10.0 mi NW 10.4 mph - 0.00 in   Overcast
2:42 PM 51.8 °F - 46.4 °F 82% 29.77 in 8.0 mi NW 10.4 mph - N/A   Overcast
2:48 PM 51.8 °F - 46.4 °F 82% 29.77 in 9.0 mi WNW 11.5 mph - N/A   Overcast
2:54 PM 50.0 °F - 46.0 °F 86% 29.77 in 9.0 mi WNW 11.5 mph - N/A   Overcast
3:02 PM 50.0 °F - 46.4 °F 87% 29.77 in 9.0 mi WNW 9.2 mph - N/A   Overcast
3:16 PM 48.2 °F - 46.4 °F 93% 29.77 in 9.0 mi WNW 10.4 mph - N/A   Overcast
3:54 PM 46.9 °F - 46.0 °F 97% 29.78 in 4.0 mi WNW 9.2 mph - 0.01 in Rain Light Rain
4:05 PM 46.4 °F 40.7 °F 46.4 °F 100% 29.77 in 4.0 mi NW 12.7 mph - 0.01 in Rain Light Rain
4:54 PM 45.0 °F 37.6 °F 45.0 °F 100% 29.81 in 3.0 mi WNW 17.3 mph 21.9 mph 0.07 in Rain Light Rain
5:23 PM 44.6 °F 38.1 °F 44.6 °F 100% 29.81 in 5.0 mi WNW 13.8 mph - 0.05 in Rain Light Rain
5:54 PM 44.1 °F 38.6 °F 43.0 °F 96% 29.82 in 3.0 mi WNW 10.4 mph - 0.13 in Rain Rain
6:03 PM 44.6 °F 39.2 °F 42.8 °F 93% 29.81 in 2.5 mi WNW 10.4 mph - 0.03 in Rain Rain
6:11 PM 44.6 °F 39.7 °F 42.8 °F 93% 29.81 in 4.0 mi NW 9.2 mph - 0.04 in Rain Light Rain
6:54 PM 44.1 °F 38.1 °F 43.0 °F 96% 29.82 in 3.0 mi NW 11.5 mph - 0.05 in Rain Light Rain
6:56 PM 44.6 °F 39.7 °F 42.8 °F 93% 29.81 in 1.5 mi NW 9.2 mph - 0.00 in   Overcast
7:04 PM 42.8 °F 37.0 °F 42.8 °F 100% 29.81 in 0.2 mi NW 10.4 mph - 0.00 in Fog Fog
7:54 PM 43.0 °F 38.2 °F 43.0 °F 100% 29.83 in 0.2 mi WNW 8.1 mph - 0.00 in Fog Fog
8:54 PM 42.1 °F 36.6 °F 42.1 °F 100% 29.84 in 0.2 mi WNW 9.2 mph - N/A Fog Fog
9:54 PM 42.1 °F 37.7 °F 42.1 °F 100% 29.86 in 0.2 mi NW 6.9 mph - N/A Fog Fog
10:41 PM 41.0 °F 34.7 °F 41.0 °F 100% 29.84 in 1.0 mi WNW 10.4 mph - N/A   Mist
10:46 PM 39.2 °F 33.0 °F 39.2 °F 100% 29.84 in 3.0 mi NW 9.2 mph - N/A   Overcast
10:51 PM 41.0 °F 35.8 °F 41.0 °F 100% 29.84 in 1.8 mi NW 8.1 mph - N/A   Overcast
10:54 PM 41.0 °F 34.7 °F 41.0 °F 100% 29.86 in 0.8 mi NW 10.4 mph - N/A   Mist
11:31 PM 39.2 °F 33.0 °F 39.2 °F 100% 29.83 in 0.2 mi NW 9.2 mph - N/A Fog Fog
11:54 PM 39.9 °F 34.5 °F 39.9 °F 100% 29.86 in 0.5 mi NW 8.1 mph - N/A Fog Fog